Notices

What's New in latest Release from April 7th, 2021:

- Updated Glossary, including Speed of Maximum Gust, and Total Hourly Precipitation

- Updated national and regional climate services offices contacts and prices information

- Addition of station inventory lists for 1981-2010, 1971-2000, and 1961-1990 Normals.

If you haven't already, please take our survey and provide feedback about our website: https://eccc.sondage-survey.ca/f/LanguageSelection.aspx?s=442ca660-fcf1-47c0-95a9-59707d6fd709

Hourly Data Report for January 27, 2021

CARBERRY CS
MANITOBA
Current Station Operator: ECCC - MSC

49°54'20.900" N
99°21'26.800" W
383.50 m
5010547
71170
WZE

Download Data

Hourly Data (January 2021)
Hourly Data Report for January 27, 2021
TIME
LST
Temp Definition
°C
Dew Point Definition
°C
Rel Hum Definition
%
Precip. Amount Definition
mm

Wind Dir Definition
10's deg

Wind Spd Definition
km/h
Visibility Definition
km
Stn Press Definition
kPa
Hmdx Definition


Wind Chill Definition


Weather Definition


00:00 -31.9 -35.1 73 0.0 15 2   98.42   -34 LegendNANA
01:00 -32.8 -36.2 72 0.0   0   98.44     LegendNANA
02:00 -32.8 -36.2 72 0.0   0   98.46     LegendNANA
03:00 -32.4 -35.8 72 0.0   0   98.49     LegendNANA
04:00 -32.6 -35.9 72 0.0   0   98.49     LegendNANA
05:00 -33.2 -36.7 71 0.0 0 1   98.51   -34 LegendNANA
06:00 -33.4 -36.9 71 0.0   0   98.55     LegendNANA
07:00 -33.1 -36.6 71 0.0 0 1   98.58   -34 LegendNANA
08:00 -33.4 -36.8 71 0.0   0   98.62     LegendNANA
09:00 -31.4 -34.9 71 0.0 15 2   98.63   -34 LegendNANA
10:00 -28.7 -32.2 72 0.0 17 5   98.64   -34 LegendNANA
11:00 -26.0 -29.8 71 0.0 14 5   98.68   -31 LegendNANA
12:00 -23.2 -28.1 64 0.0 14 6   98.67   -29 LegendNANA
13:00 -21.0 -27.7 55 0.0 14 7   98.63   -27 LegendNANA
14:00 -19.4 -27.0 51 0.0 14 7   98.54   -25 LegendNANA
15:00 -18.3 -26.0 51 0.0 11 10   98.53   -25 LegendNANA
16:00 -18.2 -25.3 54 0.0 10 13   98.53   -26 LegendNANA
17:00 -19.5 -25.6 58 0.0 10 12   98.51   -27 LegendNANA
18:00 -21.0 -25.9 65 0.0 10 7   98.57   -27 LegendNANA
19:00 -23.1 -27.4 68 0.0 9 13   98.55   -32 LegendNANA
20:00 -23.8 -27.6 71 0.0 10 10   98.55   -32 LegendNANA
21:00 -25.6 -28.8 75 0.0 8 9   98.57   -33 LegendNANA
22:00 -25.9 -28.7 77 0.0 10 8   98.59   -33 LegendNANA
23:00 -25.7 -28.6 77 0.0 9 10   98.51   -34 LegendNANA

Notes on Data Quality.

Legend

  • E = Estimated
  • M = Missing
  • NA = Not Available*
  • [empty] = Indicates an unobserved value
Date modified: